This is the latest recevied weather packets stored in our database for station/object WD9EKA. If no packets are shown the sender has not sent any weather packets the latest 10 day(s).
| Time | Temp. | Humidity | Pressure | Rain* | Wind** | Luminosity | Snow |
|---|---|---|---|---|---|---|---|
| 1777607230 | 12.22° C | 71% | 1009.5 hPa | 0 mm | - | - | - |
| 1777606910 | 12.22° C | 71% | 1009.7 hPa | 0 mm | - | - | - |
| 1777606593 | 11.67° C | 72% | 1009.7 hPa | 0 mm | - | - | - |
| 1777606277 | 11.67° C | 72% | 1009.7 hPa | 0 mm | - | - | - |
| 1777605630 | 11.67° C | 73% | 1009.7 hPa | 0 mm | - | - | - |
| 1777604670 | 11.67° C | 73% | 1010.1 hPa | 0 mm | - | - | - |
| 1777604350 | 11.67° C | 72% | 1010.1 hPa | 0 mm | - | - | - |
| 1777604030 | 11.67° C | 72% | 1010.3 hPa | 0 mm | - | - | - |
| 1777603713 | 11.67° C | 70% | 1009.9 hPa | 0 mm | - | - | - |
| 1777603407 | 12.22° C | 70% | 1010 hPa | 0 mm | - | - | - |
| 1777603087 | 12.22° C | 69% | 1010.3 hPa | 0 mm | - | - | - |
| 1777602766 | 12.22° C | 70% | 1010.4 hPa | 0 mm | - | - | - |
| 1777602446 | 12.22° C | 70% | 1010.2 hPa | 0 mm | - | - | - |
| 1777602127 | 12.22° C | 69% | 1010.2 hPa | 0 mm | - | - | - |
| 1777601806 | 12.22° C | 69% | 1009.9 hPa | 0 mm | - | - | - |
| 1777601486 | 12.22° C | 67% | 1010.1 hPa | 0 mm | - | - | - |
| 1777601167 | 12.22° C | 70% | 1010 hPa | 0 mm | - | - | - |
| 1777600847 | 12.22° C | 70% | 1010.2 hPa | 0 mm | - | - | - |
| 1777600526 | 12.22° C | 68% | 1010.1 hPa | 0 mm | - | - | - |
| 1777600208 | 12.78° C | 66% | 1010.1 hPa | 0 mm | - | - | - |
| 1777599887 | 12.78° C | 65% | 1010 hPa | 0 mm | - | - | - |
| 1777599247 | 13.33° C | 66% | 1010.1 hPa | 0 mm | - | - | - |
| 1777598927 | 13.33° C | 62% | 1010.2 hPa | 0 mm | - | - | - |
| 1777598606 | 13.33° C | 64% | 1010.1 hPa | 0 mm | - | - | - |
| 1777598287 | 12.78° C | 65% | 1010.1 hPa | 0 mm | - | - | - |
* Rain latest hour (hover to see other rain measurements)
** Current wind speed in m/s (hover to see current wind gust speed)